Starlink 31855

operational
NORAD ID: 59838 Int'l Des: 2024-097 Owner: SPXS Country: US Constellation: starlink
LEOCIRCULAR

About Starlink 31855

Description loading...

Live Position

Loading 3D Globe...

Upcoming Passes

Altitude History

Altitude vs Time

uPlot chart will show altitude changes over time

Two-Line Element Set

1 59838U 24097D 25259.06661439 .00023355 00000-0 85454-3 0 9990
2 59838 42.9970 180.2547 0001221 271.6864 88.3848 15.27618271 75217
Epoch: Sep 16, 2025 • Age: 13 hours

Current Status

Altitude 483.8 km
Velocity 7.63 km/s
Sub-Earth Point 28.37°N, 105.01°E
Launch Date May 23, 2024
Age 1.3 years
Type internet

Technical Details

Classification Payload
Mass 730.00 kg
Dry Mass 700.00 kg
Total Mass 730.00 kg
Length 0.30 m
Diameter 4.10 m
Span 29.00 m
Shape Box + pan
Manufacturer SPXS
Bus Type Starlink V2M
Phase Status In Orbit
Owner/State SPXS/US

Large Constellations

Loading constellations...